TimeEDT,TemperatureF,Dew PointF,Humidity,Sea Level PressureIn,VisibilityMPH,Wind Direction,Wind SpeedMPH,Gust SpeedMPH,PrecipitationIn,Events,Conditions,WindDirDegrees,DateUTC
12:15 AM,59.0,41.0,51,29.94,10.0,West,27.6,39.1,N/A,,Clear,260,2011-10-17 04:15:00
12:35 AM,59.0,41.0,51,29.95,10.0,WSW,21.9,33.4,N/A,,Clear,250,2011-10-17 04:35:00
12:55 AM,59.0,41.0,51,29.95,10.0,West,20.7,33.4,N/A,,Clear,260,2011-10-17 04:55:00
1:15 AM,59.0,41.0,51,29.94,10.0,West,24.2,32.2,N/A,,Clear,260,2011-10-17 05:15:00
1:35 AM,59.0,41.0,51,29.94,10.0,West,21.9,29.9,N/A,,Scattered Clouds,270,2011-10-17 05:35:00
1:55 AM,59.0,41.0,51,29.94,10.0,West,25.3,32.2,N/A,,Mostly Cloudy,260,2011-10-17 05:55:00
2:15 AM,57.2,42.8,59,29.93,10.0,West,24.2,35.7,N/A,,Mostly Cloudy,260,2011-10-17 06:15:00
2:35 AM,57.2,42.8,59,29.92,10.0,West,21.9,31.1,N/A,,Clear,260,2011-10-17 06:35:00
2:55 AM,57.2,42.8,59,29.91,10.0,West,27.6,33.4,N/A,,Clear,260,2011-10-17 06:55:00
3:15 AM,57.2,42.8,59,29.91,10.0,West,27.6,34.5,N/A,,Clear,260,2011-10-17 07:15:00
3:35 AM,57.2,42.8,59,29.91,10.0,West,23.0,39.1,N/A,,Clear,260,2011-10-17 07:35:00
3:55 AM,57.2,42.8,59,29.91,10.0,West,24.2,34.5,N/A,,Clear,260,2011-10-17 07:55:00
4:15 AM,57.2,42.8,59,29.91,10.0,West,21.9,33.4,N/A,,Clear,260,2011-10-17 08:15:00
4:35 AM,57.2,42.8,59,29.91,10.0,West,21.9,31.1,N/A,,Clear,260,2011-10-17 08:35:00
4:55 AM,57.2,42.8,59,29.91,10.0,West,20.7,33.4,N/A,,Clear,270,2011-10-17 08:55:00
5:15 AM,57.2,44.6,63,29.91,10.0,West,19.6,31.1,N/A,,Clear,260,2011-10-17 09:15:00
5:35 AM,57.2,44.6,63,29.91,10.0,West,24.2,29.9,N/A,,Clear,260,2011-10-17 09:35:00
5:55 AM,57.2,44.6,63,29.91,10.0,West,21.9,34.5,N/A,,Clear,260,2011-10-17 09:55:00
6:15 AM,57.2,44.6,63,29.91,10.0,West,24.2,31.1,N/A,,Clear,260,2011-10-17 10:15:00
6:35 AM,57.2,44.6,63,29.92,10.0,West,21.9,32.2,N/A,,Clear,260,2011-10-17 10:35:00
6:55 AM,57.2,44.6,63,29.93,10.0,West,20.7,31.1,N/A,,Clear,270,2011-10-17 10:55:00
7:15 AM,55.4,44.6,67,29.93,10.0,West,18.4,28.8,N/A,,Clear,260,2011-10-17 11:15:00
7:35 AM,55.4,44.6,67,29.94,10.0,West,17.3,25.3,N/A,,Scattered Clouds,270,2011-10-17 11:35:00
7:55 AM,55.4,44.6,67,29.94,10.0,West,12.7,-,N/A,,Scattered Clouds,270,2011-10-17 11:55:00
8:15 AM,55.4,44.6,67,29.95,10.0,West,15.0,23.0,N/A,,Scattered Clouds,280,2011-10-17 12:15:00
8:35 AM,55.4,46.4,72,29.96,10.0,West,19.6,25.3,N/A,,Mostly Cloudy,270,2011-10-17 12:35:00
8:55 AM,53.6,46.4,77,29.96,10.0,West,20.7,26.5,N/A,,Mostly Cloudy,270,2011-10-17 12:55:00
9:15 AM,55.4,44.6,67,29.96,10.0,West,19.6,31.1,N/A,,Mostly Cloudy,280,2011-10-17 13:15:00
9:35 AM,55.4,46.4,72,29.97,10.0,West,21.9,27.6,N/A,,Scattered Clouds,280,2011-10-17 13:35:00
9:55 AM,55.4,46.4,72,29.97,10.0,West,19.6,25.3,N/A,,Unknown,270,2011-10-17 13:55:00
10:15 AM,55.4,46.4,72,29.97,10.0,West,24.2,33.4,N/A,,Mostly Cloudy,270,2011-10-17 14:15:00
10:16 AM,55.4,46.4,72,29.96,10.0,West,21.9,33.4,N/A,,Scattered Clouds,270,2011-10-17 14:16:00
10:35 AM,57.2,46.4,67,29.96,10.0,West,26.5,35.7,N/A,,Clear,280,2011-10-17 14:35:00
10:36 AM,57.2,46.4,67,29.96,10.0,West,26.5,35.7,N/A,,Clear,270,2011-10-17 14:36:00
11:15 AM,57.2,46.4,67,29.96,10.0,West,18.4,31.1,N/A,,Clear,280,2011-10-17 15:15:00
11:35 AM,60.8,48.2,63,29.96,10.0,West,19.6,27.6,N/A,,Clear,270,2011-10-17 15:35:00
11:55 AM,60.8,46.4,59,29.96,10.0,West,19.6,27.6,N/A,,Clear,280,2011-10-17 15:55:00
12:15 PM,60.8,46.4,59,29.96,10.0,West,23.0,29.9,N/A,,Clear,260,2011-10-17 16:15:00
12:35 PM,62.6,46.4,55,29.96,10.0,West,19.6,25.3,N/A,,Clear,260,2011-10-17 16:35:00
12:55 PM,62.6,46.4,55,29.95,10.0,West,16.1,27.6,N/A,,Clear,270,2011-10-17 16:55:00
1:15 PM,64.4,42.8,45,29.95,10.0,West,19.6,28.8,N/A,,Clear,280,2011-10-17 17:15:00
1:35 PM,64.4,42.8,45,29.94,10.0,West,18.4,27.6,N/A,,Clear,260,2011-10-17 17:35:00
1:55 PM,64.4,41.0,42,29.94,10.0,West,21.9,29.9,N/A,,Clear,260,2011-10-17 17:55:00
2:15 PM,64.4,41.0,42,29.94,10.0,West,20.7,29.9,N/A,,Clear,260,2011-10-17 18:15:00
3:15 PM,64.4,33.8,32,29.93,10.0,West,18.4,26.5,N/A,,Clear,270,2011-10-17 19:15:00
3:35 PM,64.4,32.0,30,29.93,10.0,West,19.6,27.6,N/A,,Clear,270,2011-10-17 19:35:00
3:55 PM,64.4,30.2,28,29.94,10.0,West,18.4,27.6,N/A,,Clear,260,2011-10-17 19:55:00
4:15 PM,64.4,26.6,24,29.94,10.0,WNW,17.3,27.6,N/A,,Clear,290,2011-10-17 20:15:00
4:35 PM,64.4,28.4,26,29.94,10.0,West,18.4,26.5,N/A,,Clear,280,2011-10-17 20:35:00
4:55 PM,64.4,28.4,26,29.94,10.0,West,15.0,24.2,N/A,,Clear,270,2011-10-17 20:55:00
5:15 PM,64.4,28.4,26,29.95,10.0,West,12.7,19.6,N/A,,Clear,260,2011-10-17 21:15:00
5:35 PM,62.6,30.2,30,29.95,10.0,West,11.5,-,N/A,,Clear,270,2011-10-17 21:35:00
5:55 PM,62.6,30.2,30,29.95,10.0,West,8.1,-,N/A,,Clear,270,2011-10-17 21:55:00
6:15 PM,60.8,30.2,31,29.96,10.0,West,10.4,21.9,N/A,,Clear,270,2011-10-17 22:15:00
6:35 PM,60.8,30.2,31,29.96,10.0,West,9.2,-,N/A,,Clear,270,2011-10-17 22:35:00
6:55 PM,59.0,30.2,34,29.97,10.0,West,8.1,-,N/A,,Clear,260,2011-10-17 22:55:00
7:15 PM,59.0,30.2,34,29.98,10.0,West,8.1,-,N/A,,Clear,270,2011-10-17 23:15:00
7:35 PM,59.0,30.2,34,29.98,10.0,West,8.1,-,N/A,,Clear,260,2011-10-17 23:35:00
7:55 PM,57.2,30.2,36,29.98,10.0,West,8.1,-,N/A,,Clear,260,2011-10-17 23:55:00
8:15 PM,57.2,30.2,36,29.98,10.0,West,8.1,-,N/A,,Clear,270,2011-10-18 00:15:00
8:35 PM,57.2,30.2,36,29.98,10.0,West,8.1,-,N/A,,Clear,280,2011-10-18 00:35:00
9:15 PM,57.2,30.2,36,29.98,10.0,West,9.2,-,N/A,,Clear,260,2011-10-18 01:15:00
9:35 PM,55.4,30.2,38,29.98,10.0,West,6.9,-,N/A,,Clear,270,2011-10-18 01:35:00
9:55 PM,55.4,30.2,38,29.98,10.0,West,6.9,-,N/A,,Clear,260,2011-10-18 01:55:00
10:15 PM,55.4,33.8,44,29.98,10.0,West,8.1,-,N/A,,Clear,260,2011-10-18 02:15:00
10:35 PM,57.2,33.8,41,29.98,10.0,West,8.1,-,N/A,,Scattered Clouds,260,2011-10-18 02:35:00
11:15 PM,53.6,35.6,51,29.98,10.0,West,8.1,-,N/A,,Mostly Cloudy,260,2011-10-18 03:15:00
11:35 PM,55.4,35.6,47,29.96,10.0,WSW,6.9,-,N/A,,Mostly Cloudy,240,2011-10-18 03:35:00
11:55 PM,55.4,37.4,51,29.96,10.0,WSW,8.1,-,N/A,,Clear,250,2011-10-18 03:55:00